| time (UTC) | temp F | wind direction | speed MPH | gust MPH | rain 1hr in | rain 24hr in | rain mn in | humidity % | barometer mb |
| 20260509161700 | 84 | 286 | 4.0 | 5.0 | 0.00 | 0.00 | 0.00 | 53 | 1008.8 |
| 20260509161156 | 84 | 295 | 3.0 | 8.0 | 0.00 | 0.00 | 0.00 | 54 | 1008.8 |
| 20260509160652 | 84 | 281 | 3.0 | 7.0 | 0.00 | 0.00 | 0.00 | 52 | 1008.8 |
| 20260509160148 | 83 | 344 | 2.0 | 5.0 | 0.00 | 0.00 | 0.00 | 59 | 1008.6 |
| 20260509155644 | 83 | 311 | 3.0 | 6.0 | 0.00 | 0.00 | 0.00 | 58 | 1008.8 |
| 20260509155140 | 83 | 311 | 4.0 | 7.0 | 0.00 | 0.00 | 0.00 | 57 | 1009.1 |
| 20260509154636 | 82 | 308 | 2.0 | 8.0 | 0.00 | 0.00 | 0.00 | 62 | 1009.2 |
| 20260509154133 | 82 | 290 | 4.0 | 7.0 | 0.00 | 0.00 | 0.00 | 61 | 1008.9 |
| 20260509153630 | 82 | 296 | 3.0 | 7.0 | 0.00 | 0.00 | 0.00 | 62 | 1009.1 |
| 20260509153127 | 82 | 359 | 4.0 | 7.0 | 0.00 | 0.00 | 0.00 | 61 | 1009.0 |
| 20260509152623 | 81 | 322 | 4.0 | 8.0 | 0.00 | 0.00 | 0.00 | 62 | 1008.9 |
| 20260509152121 | 81 | 339 | 3.0 | 7.0 | 0.00 | 0.00 | 0.00 | 66 | 1008.8 |
| 20260509151617 | 81 | 350 | 5.0 | 5.0 | 0.00 | 0.00 | 0.00 | 65 | 1008.9 |
| 20260509151114 | 81 | 9 | 2.0 | 6.0 | 0.00 | 0.00 | 0.00 | 66 | 1009.0 |
| 20260509150612 | 81 | 346 | 3.0 | 7.0 | 0.00 | 0.00 | 0.00 | 67 | 1008.8 |
| 20260509150110 | 80 | 0 | 4.0 | 7.0 | 0.00 | 0.00 | 0.00 | 67 | 1008.7 |
| 20260509145606 | 80 | 345 | 8.0 | 9.0 | 0.00 | 0.00 | 0.00 | 67 | 1008.8 |
| 20260509145101 | 79 | 357 | 3.0 | 7.0 | 0.00 | 0.00 | 0.00 | 70 | 1008.6 |
| 20260509144558 | 79 | 340 | 3.0 | 7.0 | 0.00 | 0.00 | 0.00 | 69 | 1008.7 |
| 20260509144055 | 78 | 2 | 4.0 | 12.0 | 0.00 | 0.00 | 0.00 | 69 | 1009.0 |
| 20260509143552 | 78 | 16 | 6.0 | 12.0 | 0.00 | 0.00 | 0.00 | 70 | 1008.9 |
| 20260509143050 | 78 | 12 | 8.0 | 9.0 | 0.00 | 0.00 | 0.00 | 73 | 1008.8 |
| 20260509142544 | 77 | 15 | 5.0 | 8.0 | 0.00 | 0.00 | 0.00 | 74 | 1008.8 |
| 20260509142041 | 77 | 354 | 4.0 | 8.0 | 0.00 | 0.00 | 0.00 | 75 | 1008.8 |
| 20260509141532 | 77 | 357 | 4.0 | 6.0 | 0.00 | 0.00 | 0.00 | 75 | 1009.1 |
| 20260509141029 | 76 | 306 | 5.0 | 8.0 | 0.00 | 0.00 | 0.00 | 75 | 1009.0 |
| 20260509140525 | 76 | 342 | 4.0 | 7.0 | 0.00 | 0.00 | 0.00 | 77 | 1008.8 |
| 20260509140024 | 75 | 334 | 5.0 | 10.0 | 0.00 | 0.00 | 0.00 | 77 | 1009.1 |
| 20260509135520 | 75 | 341 | 3.0 | 8.0 | 0.00 | 0.00 | 0.00 | 78 | 1009.0 |
| 20260509135018 | 76 | 345 | 3.0 | 6.0 | 0.00 | 0.00 | 0.00 | 78 | 1008.9 |
| 20260509134515 | 76 | 328 | 6.0 | 10.0 | 0.00 | 0.00 | 0.00 | 77 | 1009.0 |
| 20260509134013 | 75 | 325 | 3.0 | 10.0 | 0.00 | 0.00 | 0.00 | 78 | 1009.1 |
| 20260509133509 | 75 | 322 | 2.0 | 8.0 | 0.00 | 0.00 | 0.00 | 79 | 1009.0 |
| 20260509133007 | 74 | 345 | 5.0 | 9.0 | 0.00 | 0.00 | 0.00 | 79 | 1008.9 |
| 20260509132505 | 74 | 32 | 4.0 | 9.0 | 0.00 | 0.00 | 0.00 | 78 | 1009.0 |
| 20260509132002 | 74 | 337 | 7.0 | 8.0 | 0.00 | 0.00 | 0.00 | 78 | 1008.6 |
| 20260509131459 | 74 | 317 | 3.0 | 9.0 | 0.00 | 0.00 | 0.00 | 78 | 1008.9 |
| 20260509130955 | 73 | 322 | 3.0 | 6.0 | 0.00 | 0.00 | 0.00 | 80 | 1008.6 |
| 20260509130451 | 73 | 317 | 5.0 | 8.0 | 0.00 | 0.00 | 0.00 | 79 | 1008.6 |
| 20260509125948 | 73 | 345 | 3.0 | 9.0 | 0.00 | 0.00 | 0.00 | 79 | 1008.5 |
| 20260509125445 | 73 | 322 | 4.0 | 12.0 | 0.00 | 0.00 | 0.00 | 79 | 1008.4 |
| 20260509124940 | 73 | 304 | 6.0 | 9.0 | 0.00 | 0.00 | 0.00 | 80 | 1008.4 |
| 20260509124438 | 73 | 323 | 3.0 | 9.0 | 0.00 | 0.00 | 0.00 | 80 | 1008.4 |
| 20260509123935 | 72 | 354 | 3.0 | 6.0 | 0.00 | 0.00 | 0.00 | 80 | 1008.4 |
| 20260509123432 | 72 | 322 | 3.0 | 6.0 | 0.00 | 0.00 | 0.00 | 80 | 1008.5 |
| 20260509122922 | 71 | 324 | 3.0 | 5.0 | 0.00 | 0.00 | 0.00 | 81 | 1008.4 |
| 20260509122420 | 71 | 338 | 2.0 | 5.0 | 0.00 | 0.00 | 0.00 | 83 | 1008.5 |
| 20260509121916 | 71 | 334 | 2.0 | 3.0 | 0.00 | 0.00 | 0.00 | 83 | 1008.4 |
| 20260509121413 | 70 | 345 | 1.0 | 3.0 | 0.00 | 0.00 | 0.00 | 85 | 1008.4 |
| 20260509120911 | 69 | 49 | 0.0 | 2.0 | 0.00 | 0.00 | 0.00 | 89 | 1008.5 |
| 20260509120409 | 69 | 335 | 0.0 | 2.0 | 0.00 | 0.00 | 0.00 | 90 | 1008.6 |
| 20260509115907 | 70 | 306 | 1.0 | 3.0 | 0.00 | 0.00 | 0.00 | 90 | 1008.5 |
| 20260509115404 | 70 | 288 | 2.0 | 3.0 | 0.00 | 0.00 | 0.00 | 89 | 1008.5 |
| 20260509114901 | 70 | 261 | 2.0 | 2.0 | 0.00 | 0.00 | 0.00 | 88 | 1008.3 |
| 20260509114400 | 70 | 296 | 1.0 | 4.0 | 0.00 | 0.00 | 0.00 | 88 | 1008.3 |
| 20260509113859 | 70 | 258 | 2.0 | 3.0 | 0.00 | 0.00 | 0.00 | 91 | 1008.5 |
| 20260509113355 | 71 | 307 | 3.0 | 4.0 | 0.00 | 0.00 | 0.00 | 92 | 1008.3 |
| 20260509112852 | 71 | 211 | 2.0 | 3.0 | 0.00 | 0.00 | 0.00 | 91 | 1008.3 |
| 20260509112349 | 71 | 201 | 1.0 | 2.0 | 0.00 | 0.00 | 0.00 | 90 | 1008.5 |
| 20260509111847 | 71 | 331 | 2.0 | 2.0 | 0.00 | 0.00 | 0.00 | 89 | 1008.2 |
| 20260509111343 | 72 | 340 | 3.0 | 4.0 | 0.00 | 0.00 | 0.00 | 89 | 1008.5 |
| 20260509110842 | 72 | 337 | 4.0 | 7.0 | 0.00 | 0.00 | 0.00 | 90 | 1008.2 |
| 20260509110337 | 72 | 294 | 3.0 | 6.0 | 0.00 | 0.00 | 0.00 | 91 | 1008.2 |
| 20260509105836 | 72 | 314 | 1.0 | 7.0 | 0.00 | 0.00 | 0.00 | 91 | 1008.0 |
| 20260509105333 | 72 | 41 | 1.0 | 5.0 | 0.00 | 0.00 | 0.00 | 92 | 1008.1 |
| 20260509104829 | 72 | 6 | 2.0 | 5.0 | 0.00 | 0.00 | 0.00 | 93 | 1007.9 |
| 20260509104326 | 72 | 345 | 2.0 | 7.0 | 0.00 | 0.00 | 0.00 | 93 | 1008.0 |
| 20260509103824 | 72 | 311 | 8.0 | 11.0 | 0.00 | 0.00 | 0.00 | 94 | 1007.9 |
| 20260509103321 | 72 | 351 | 2.0 | 11.0 | 0.00 | 0.00 | 0.00 | 94 | 1007.4 |
| 20260509102820 | 72 | 316 | 8.0 | 14.0 | 0.00 | 0.00 | 0.00 | 94 | 1007.4 |
| 20260509102317 | 71 | 288 | 5.0 | 17.0 | 0.00 | 0.00 | 0.00 | 95 | 1007.4 |
| 20260509101812 | 71 | 211 | 7.0 | 14.0 | 0.00 | 0.00 | 0.00 | 95 | 1006.5 |
| 20260509101309 | 71 | 193 | 7.0 | 13.0 | 0.00 | 0.00 | 0.00 | 95 | 1006.4 |
| 20260509100807 | 71 | 253 | 2.0 | 8.0 | 0.00 | 0.00 | 0.00 | 95 | 1006.1 |
| 20260509100304 | 71 | 200 | 13.0 | 14.0 | 0.00 | 0.00 | 0.00 | 95 | 1005.6 |
| 20260509095800 | 71 | 174 | 5.0 | 19.0 | 0.00 | 0.00 | 0.00 | 95 | 1005.5 |
| 20260509095257 | 71 | 212 | 4.0 | 14.0 | 0.00 | 0.00 | 0.00 | 95 | 1005.7 |
| 20260509094755 | 71 | 206 | 9.0 | 14.0 | 0.00 | 0.00 | 0.00 | 95 | 1005.7 |
| 20260509094251 | 71 | 180 | 2.0 | 8.0 | 0.00 | 0.00 | 0.00 | 95 | 1005.4 |
| 20260509093749 | 71 | 212 | 3.0 | 14.0 | 0.00 | 0.00 | 0.00 | 95 | 1005.6 |
| 20260509093246 | 71 | 161 | 7.0 | 17.0 | 0.00 | 0.00 | 0.00 | 95 | 1005.0 |
| 20260509092745 | 71 | 172 | 7.0 | 13.0 | 0.00 | 0.00 | 0.00 | 95 | 1005.2 |
| 20260509092242 | 71 | 184 | 6.0 | 12.0 | 0.00 | 0.00 | 0.00 | 95 | 1005.6 |
| 20260509091740 | 71 | 173 | 5.0 | 11.0 | 0.00 | 0.00 | 0.00 | 95 | 1005.7 |
| 20260509091236 | 71 | 193 | 5.0 | 14.0 | 0.00 | 0.00 | 0.00 | 95 | 1005.8 |
| 20260509090734 | 71 | 181 | 6.0 | 13.0 | 0.00 | 0.00 | 0.00 | 95 | 1005.9 |
| 20260509090231 | 71 | 211 | 7.0 | 13.0 | 0.00 | 0.00 | 0.00 | 95 | 1006.5 |
| 20260509085728 | 71 | 173 | 7.0 | 15.0 | 0.00 | 0.00 | 0.00 | 95 | 1006.3 |
| 20260509085225 | 71 | 191 | 3.0 | 12.0 | 0.00 | 0.00 | 0.00 | 95 | 1006.2 |
| 20260509084722 | 71 | 197 | 5.0 | 8.0 | 0.00 | 0.00 | 0.00 | 95 | 1006.5 |
| 20260509084218 | 71 | 222 | 5.0 | 7.0 | 0.00 | 0.00 | 0.00 | 95 | 1006.6 |
| 20260509083717 | 71 | 195 | 3.0 | 9.0 | 0.00 | 0.00 | 0.00 | 94 | 1006.9 |
| 20260509083213 | 71 | 185 | 3.0 | 9.0 | 0.00 | 0.00 | 0.00 | 94 | 1007.1 |
| 20260509082710 | 71 | 182 | 7.0 | 9.0 | 0.00 | 0.00 | 0.00 | 95 | 1007.1 |
| 20260509082206 | 71 | 144 | 3.0 | 8.0 | 0.00 | 0.00 | 0.00 | 94 | 1007.3 |
| 20260509081703 | 71 | 178 | 2.0 | 9.0 | 0.00 | 0.00 | 0.00 | 95 | 1007.2 |
| 20260509081201 | 71 | 188 | 5.0 | 9.0 | 0.00 | 0.00 | 0.00 | 95 | 1007.4 |
| 20260509080659 | 71 | 180 | 2.0 | 11.0 | 0.00 | 0.00 | 0.00 | 95 | 1007.9 |
| 20260509080156 | 71 | 217 | 1.0 | 7.0 | 0.00 | 0.00 | 0.00 | 94 | 1008.4 |
| 20260509075654 | 71 | 160 | 3.0 | 6.0 | 0.00 | 0.00 | 0.00 | 94 | 1008.5 |
| 20260509075152 | 71 | 172 | 5.0 | 8.0 | 0.00 | 0.00 | 0.00 | 94 | 1008.9 |
| 20260509074648 | 71 | 185 | 5.0 | 6.0 | 0.00 | 0.00 | 0.00 | 94 | 1009.1 |
| 20260509074145 | 71 | 187 | 4.0 | 9.0 | 0.00 | 0.00 | 0.00 | 93 | 1009.2 |
| 20260509073642 | 71 | 214 | 3.0 | 6.0 | 0.00 | 0.00 | 0.00 | 93 | 1010.0 |
| 20260509073137 | 71 | 284 | 3.0 | 7.0 | 0.00 | 0.00 | 0.00 | 93 | 1010.3 |
| 20260509072634 | 71 | 289 | 8.0 | 12.0 | 0.00 | 0.00 | 0.00 | 93 | 1010.4 |
| 20260509072126 | 71 | 303 | 6.0 | 11.0 | 0.00 | 0.00 | 0.00 | 94 | 1010.2 |
| 20260509071622 | 70 | 304 | 3.0 | 7.0 | 0.00 | 0.00 | 0.00 | 95 | 1009.9 |
| 20260509071120 | 70 | 316 | 1.0 | 7.0 | 0.00 | 0.00 | 0.00 | 95 | 1009.9 |
| 20260509070617 | 70 | 312 | 3.0 | 6.0 | 0.00 | 0.00 | 0.00 | 96 | 1010.0 |
| 20260509070113 | 70 | 303 | 2.0 | 5.0 | 0.00 | 0.00 | 0.00 | 96 | 1009.8 |
| 20260509065609 | 70 | 313 | 1.0 | 3.0 | 0.00 | 0.00 | 0.00 | 96 | 1009.9 |
| 20260509065104 | 69 | 317 | 3.0 | 5.0 | 0.00 | 0.00 | 0.00 | 96 | 1010.3 |
| 20260509064602 | 69 | 357 | 2.0 | 4.0 | 0.00 | 0.00 | 0.00 | 96 | 1010.1 |
| 20260509064101 | 69 | 335 | 3.0 | 6.0 | 0.00 | 0.00 | 0.00 | 96 | 1010.1 |
| 20260509063556 | 69 | 347 | 1.0 | 3.0 | 0.00 | 0.00 | 0.00 | 96 | 1010.0 |
| 20260509063053 | 69 | 341 | 0.0 | 3.0 | 0.00 | 0.00 | 0.00 | 96 | 1009.6 |
| 20260509062550 | 69 | 356 | 2.0 | 7.0 | 0.00 | 0.00 | 0.00 | 96 | 1009.7 |
| 20260509062047 | 68 | 15 | 0.0 | 2.0 | 0.00 | 0.00 | 0.00 | 96 | 1009.6 |
| 20260509061544 | 68 | 4 | 0.0 | 3.0 | 0.00 | 0.00 | 0.00 | 96 | 1009.2 |
| 20260509061041 | 68 | 341 | 2.0 | 3.0 | 0.00 | 0.00 | 0.00 | 96 | 1009.4 |
| 20260509060539 | 68 | 354 | 2.0 | 3.0 | 0.00 | 0.00 | 0.00 | 96 | 1008.9 |
| 20260509060034 | 69 | 352 | 0.0 | 2.0 | 0.00 | 0.00 | 0.00 | 96 | 1008.9 |
| 20260509055530 | 69 | 10 | 1.0 | 1.0 | 0.00 | 0.00 | 0.00 | 96 | 1008.6 |
| 20260509055021 | 69 | 79 | 0.0 | 1.0 | 0.00 | 0.00 | 0.00 | 96 | 1008.5 |
| 20260509054517 | 69 | 174 | 0.0 | 0.0 | 0.00 | 0.00 | 0.00 | 96 | 1008.2 |
| 20260509054016 | 69 | 174 | 0.0 | 0.0 | 0.00 | 0.00 | 0.00 | 95 | 1008.5 |
| 20260509053514 | 69 | 174 | 0.0 | 2.0 | 0.00 | 0.00 | 0.00 | 96 | 1008.5 |
| 20260509053011 | 69 | 224 | 1.0 | 3.0 | 0.00 | 0.00 | 0.00 | 96 | 1008.7 |
| 20260509052508 | 69 | 202 | 0.0 | 1.0 | 0.00 | 0.00 | 0.00 | 95 | 1008.7 |
| 20260509052007 | 70 | 208 | 0.0 | 3.0 | 0.00 | 0.00 | 0.00 | 95 | 1008.4 |
| 20260509051504 | 70 | 217 | 0.0 | 3.0 | 0.00 | 0.00 | 0.00 | 95 | 1008.6 |
| 20260509051001 | 70 | 159 | 1.0 | 3.0 | 0.00 | 0.00 | 0.00 | 94 | 1008.7 |
| 20260509050457 | 70 | 187 | 0.0 | 2.0 | 0.00 | 0.00 | 0.00 | 94 | 1008.9 |
| 20260509045954 | 71 | 175 | 0.0 | 3.0 | 0.00 | 0.01 | 0.01 | 94 | 1008.6 |
| 20260509045451 | 71 | 157 | 0.0 | 2.0 | 0.00 | 0.01 | 0.01 | 93 | 1008.8 |
| 20260509044948 | 71 | 32 | 0.0 | 2.0 | 0.00 | 0.01 | 0.01 | 93 | 1008.9 |
| 20260509044446 | 71 | 36 | 2.0 | 3.0 | 0.00 | 0.01 | 0.01 | 93 | 1009.1 |
| 20260509043943 | 71 | 38 | 2.0 | 3.0 | 0.00 | 0.01 | 0.01 | 93 | 1008.8 |
| 20260509043438 | 71 | 89 | 0.0 | 2.0 | 0.00 | 0.01 | 0.01 | 92 | 1008.5 |
| 20260509042934 | 71 | 199 | 0.0 | 2.0 | 0.00 | 0.01 | 0.01 | 93 | 1008.5 |
| 20260509042432 | 71 | 164 | 0.0 | 4.0 | 0.00 | 0.01 | 0.01 | 92 | 1008.2 |
| 20260509041927 | 71 | 176 | 3.0 | 7.0 | 0.00 | 0.01 | 0.01 | 92 | 1008.2 |
| 20260509041424 | 72 | 159 | 2.0 | 7.0 | 0.00 | 0.01 | 0.01 | 92 | 1008.0 |
| 20260509040922 | 72 | 169 | 5.0 | 8.0 | 0.00 | 0.01 | 0.01 | 91 | 1008.1 |
| 20260509040420 | 72 | 135 | 1.0 | 6.0 | 0.00 | 0.01 | 0.01 | 91 | 1008.3 |
| 20260509035917 | 72 | 154 | 2.0 | 7.0 | 0.00 | 0.01 | 0.01 | 91 | 1008.4 |
| 20260509035414 | 72 | 160 | 3.0 | 7.0 | 0.00 | 0.01 | 0.01 | 91 | 1008.3 |
| 20260509034910 | 72 | 144 | 2.0 | 6.0 | 0.00 | 0.01 | 0.01 | 90 | 1008.2 |
| 20260509034408 | 72 | 176 | 3.0 | 6.0 | 0.00 | 0.01 | 0.01 | 90 | 1008.2 |
| 20260509033905 | 72 | 184 | 2.0 | 5.0 | 0.00 | 0.01 | 0.01 | 90 | 1008.2 |
| 20260509033402 | 73 | 160 | 2.0 | 11.0 | 0.00 | 0.01 | 0.01 | 90 | 1007.5 |
| 20260509032858 | 73 | 168 | 3.0 | 9.0 | 0.00 | 0.01 | 0.01 | 90 | 1007.5 |
| 20260509032356 | 73 | 162 | 3.0 | 7.0 | 0.00 | 0.01 | 0.01 | 89 | 1007.9 |
| 20260509031854 | 73 | 153 | 4.0 | 11.0 | 0.00 | 0.01 | 0.01 | 89 | 1007.7 |
| 20260509031351 | 73 | 202 | 4.0 | 8.0 | 0.00 | 0.01 | 0.01 | 89 | 1007.7 |
| 20260509030848 | 73 | 178 | 2.0 | 4.0 | 0.00 | 0.01 | 0.01 | 89 | 1007.7 |
| 20260509030345 | 73 | 141 | 2.0 | 9.0 | 0.00 | 0.01 | 0.01 | 88 | 1007.3 |
| 20260509025837 | 73 | 161 | 2.0 | 9.0 | 0.00 | 0.01 | 0.01 | 88 | 1007.7 |
| 20260509025332 | 74 | 172 | 5.0 | 10.0 | 0.00 | 0.01 | 0.01 | 88 | 1007.3 |
| 20260509024828 | 74 | 162 | 3.0 | 8.0 | 0.00 | 0.01 | 0.01 | 88 | 1007.7 |
| 20260509024324 | 74 | 160 | 2.0 | 7.0 | 0.00 | 0.01 | 0.01 | 88 | 1007.4 |
| 20260509023821 | 74 | 178 | 3.0 | 6.0 | 0.00 | 0.01 | 0.01 | 88 | 1007.2 |
| 20260509023319 | 74 | 196 | 4.0 | 5.0 | 0.00 | 0.01 | 0.01 | 88 | 1007.2 |
| 20260509022815 | 74 | 202 | 0.0 | 5.0 | 0.00 | 0.01 | 0.01 | 88 | 1007.1 |
| 20260509022313 | 74 | 199 | 2.0 | 4.0 | 0.00 | 0.01 | 0.01 | 88 | 1007.2 |
| 20260509021809 | 74 | 188 | 3.0 | 6.0 | 0.00 | 0.01 | 0.01 | 88 | 1007.1 |
| 20260509021307 | 74 | 211 | 2.0 | 4.0 | 0.00 | 0.01 | 0.01 | 87 | 1007.1 |
| 20260509020804 | 74 | 192 | 1.0 | 3.0 | 0.00 | 0.01 | 0.01 | 87 | 1007.1 |
| 20260509020302 | 74 | 302 | 0.0 | 3.0 | 0.00 | 0.01 | 0.01 | 87 | 1007.1 |
| 20260509015759 | 74 | 204 | 2.0 | 5.0 | 0.00 | 0.01 | 0.01 | 87 | 1006.9 |
| 20260509015257 | 74 | 144 | 0.0 | 4.0 | 0.00 | 0.01 | 0.01 | 87 | 1007.0 |
| 20260509014753 | 74 | 192 | 2.0 | 5.0 | 0.00 | 0.01 | 0.01 | 87 | 1006.7 |
| 20260509014250 | 74 | 181 | 1.0 | 7.0 | 0.00 | 0.01 | 0.01 | 87 | 1006.7 |
| 20260509013747 | 74 | 196 | 2.0 | 5.0 | 0.00 | 0.01 | 0.01 | 86 | 1006.8 |
| 20260509013243 | 74 | 167 | 4.0 | 8.0 | 0.00 | 0.01 | 0.01 | 86 | 1006.7 |
| 20260509012740 | 75 | 179 | 2.0 | 5.0 | 0.00 | 0.01 | 0.01 | 86 | 1006.8 |
| 20260509012236 | 75 | 166 | 4.0 | 4.0 | 0.00 | 0.01 | 0.01 | 85 | 1006.7 |
| 20260509011734 | 75 | 175 | 3.0 | 5.0 | 0.00 | 0.01 | 0.01 | 85 | 1006.7 |
| 20260509011231 | 75 | 148 | 3.0 | 5.0 | 0.00 | 0.01 | 0.01 | 85 | 1006.6 |
| 20260509010729 | 75 | 190 | 1.0 | 5.0 | 0.00 | 0.01 | 0.01 | 85 | 1006.4 |
| 20260509010225 | 75 | 183 | 0.0 | 5.0 | 0.00 | 0.01 | 0.01 | 85 | 1006.5 |
| 20260509005722 | 75 | 166 | 3.0 | 5.0 | 0.00 | 0.01 | 0.01 | 85 | 1005.9 |
| 20260509005220 | 75 | 140 | 4.0 | 5.0 | 0.00 | 0.01 | 0.01 | 85 | 1006.1 |
| 20260509004714 | 75 | 179 | 2.0 | 6.0 | 0.00 | 0.01 | 0.01 | 85 | 1006.1 |
| 20260509004212 | 75 | 181 | 3.0 | 5.0 | 0.00 | 0.01 | 0.01 | 84 | 1006.2 |
| 20260509003710 | 75 | 160 | 3.0 | 4.0 | 0.00 | 0.01 | 0.01 | 84 | 1006.1 |
| 20260509003207 | 75 | 162 | 4.0 | 6.0 | 0.00 | 0.01 | 0.01 | 85 | 1006.3 |
| 20260509002704 | 75 | 170 | 4.0 | 6.0 | 0.00 | 0.01 | 0.01 | 85 | 1006.5 |
| 20260509002202 | 75 | 177 | 0.0 | 3.0 | 0.00 | 0.01 | 0.01 | 85 | 1006.3 |
| 20260509001659 | 75 | 171 | 2.0 | 4.0 | 0.00 | 0.01 | 0.01 | 84 | 1006.3 |
| 20260509001155 | 76 | 159 | 2.0 | 4.0 | 0.00 | 0.01 | 0.01 | 84 | 1006.4 |
| 20260509000653 | 76 | 217 | 1.0 | 7.0 | 0.00 | 0.01 | 0.01 | 84 | 1006.1 |
| 20260509000150 | 76 | 179 | 2.0 | 6.0 | 0.00 | 0.01 | 0.01 | 84 | 1006.5 |
| 20260508235647 | 76 | 177 | 3.0 | 6.0 | 0.00 | 0.01 | 0.01 | 83 | 1006.3 |
| 20260508235144 | 76 | 189 | 1.0 | 7.0 | 0.00 | 0.01 | 0.01 | 83 | 1006.3 |
| 20260508234641 | 76 | 168 | 5.0 | 6.0 | 0.00 | 0.01 | 0.01 | 82 | 1006.0 |
| 20260508234137 | 76 | 154 | 3.0 | 7.0 | 0.00 | 0.01 | 0.01 | 82 | 1006.1 |
| 20260508233637 | 76 | 179 | 2.0 | 3.0 | 0.00 | 0.01 | 0.01 | 82 | 1006.0 |
| 20260508233134 | 76 | 150 | 5.0 | 9.0 | 0.00 | 0.01 | 0.01 | 82 | 1006.1 |
| 20260508232631 | 77 | 154 | 4.0 | 8.0 | 0.00 | 0.01 | 0.01 | 81 | 1005.9 |
| 20260508232128 | 77 | 145 | 5.0 | 8.0 | 0.00 | 0.01 | 0.01 | 80 | 1006.2 |
| 20260508231626 | 77 | 219 | 4.0 | 10.0 | 0.00 | 0.01 | 0.01 | 80 | 1006.2 |
| 20260508231123 | 77 | 196 | 3.0 | 11.0 | 0.00 | 0.01 | 0.01 | 80 | 1006.1 |
| 20260508230619 | 77 | 154 | 2.0 | 11.0 | 0.00 | 0.01 | 0.01 | 81 | 1006.1 |
| 20260508230115 | 77 | 172 | 4.0 | 6.0 | 0.00 | 0.01 | 0.01 | 81 | 1005.9 |
| 20260508225614 | 76 | 171 | 4.0 | 9.0 | 0.00 | 0.01 | 0.01 | 81 | 1006.1 |
| 20260508225109 | 76 | 193 | 5.0 | 12.0 | 0.00 | 0.01 | 0.01 | 81 | 1006.0 |
| 20260508224608 | 76 | 160 | 4.0 | 8.0 | 0.00 | 0.01 | 0.01 | 81 | 1006.0 |
| 20260508224104 | 76 | 133 | 6.0 | 11.0 | 0.00 | 0.01 | 0.01 | 80 | 1006.0 |
| 20260508223603 | 76 | 147 | 8.0 | 9.0 | 0.00 | 0.01 | 0.01 | 79 | 1006.5 |
| 20260508223059 | 76 | 165 | 6.0 | 7.0 | 0.00 | 0.01 | 0.01 | 81 | 1006.4 |
| 20260508222556 | 75 | 111 | 3.0 | 10.0 | 0.00 | 0.01 | 0.01 | 81 | 1006.5 |
| 20260508222054 | 75 | 140 | 3.0 | 10.0 | 0.00 | 0.01 | 0.01 | 81 | 1006.5 |
| 20260508221550 | 75 | 207 | 2.0 | 9.0 | 0.00 | 0.01 | 0.01 | 81 | 1006.3 |
| 20260508221045 | 76 | 162 | 3.0 | 11.0 | 0.00 | 0.01 | 0.01 | 80 | 1006.7 |
| 20260508220542 | 75 | 127 | 3.0 | 7.0 | 0.00 | 0.01 | 0.01 | 81 | 1006.8 |
| 20260508220038 | 75 | 175 | 5.0 | 6.0 | 0.00 | 0.01 | 0.01 | 80 | 1006.8 |
| 20260508215536 | 74 | 98 | 2.0 | 5.0 | 0.00 | 0.01 | 0.01 | 82 | 1007.0 |
| 20260508215032 | 74 | 151 | 4.0 | 6.0 | 0.00 | 0.01 | 0.01 | 82 | 1007.1 |
| 20260508214530 | 74 | 143 | 5.0 | 8.0 | 0.00 | 0.01 | 0.01 | 81 | 1007.2 |
| 20260508214025 | 75 | 183 | 0.0 | 7.0 | 0.00 | 0.01 | 0.01 | 81 | 1007.0 |
| 20260508213524 | 75 | 179 | 3.0 | 4.0 | 0.00 | 0.01 | 0.01 | 81 | 1006.9 |
| 20260508213019 | 75 | 169 | 3.0 | 6.0 | 0.00 | 0.01 | 0.01 | 81 | 1007.1 |
| 20260508212516 | 74 | 195 | 3.0 | 7.0 | 0.00 | 0.01 | 0.01 | 79 | 1007.5 |
| 20260508212012 | 75 | 82 | 0.0 | 5.0 | 0.00 | 0.01 | 0.01 | 80 | 1007.5 |
| 20260508211508 | 74 | 157 | 5.0 | 5.0 | 0.00 | 0.01 | 0.01 | 81 | 1007.5 |
| 20260508211004 | 74 | 179 | 2.0 | 11.0 | 0.00 | 0.01 | 0.01 | 81 | 1007.5 |
| 20260508210501 | 74 | 58 | 3.0 | 9.0 | 0.00 | 0.01 | 0.01 | 81 | 1007.7 |
| 20260508205957 | 75 | 162 | 8.0 | 8.0 | 0.00 | 0.01 | 0.01 | 79 | 1007.4 |
| 20260508205455 | 73 | 206 | 4.0 | 12.0 | 0.00 | 0.01 | 0.01 | 81 | 1007.5 |
| 20260508204951 | 73 | 166 | 6.0 | 16.0 | 0.00 | 0.01 | 0.01 | 81 | 1007.2 |
| 20260508204448 | 72 | 136 | 12.0 | 23.0 | 0.00 | 0.01 | 0.01 | 82 | 1007.0 |
| 20260508203943 | 73 | 142 | 6.0 | 20.0 | 0.00 | 0.01 | 0.01 | 82 | 1007.1 |
| 20260508203440 | 72 | 147 | 5.0 | 14.0 | 0.00 | 0.01 | 0.01 | 83 | 1007.4 |
| 20260508202936 | 71 | 144 | 9.0 | 14.0 | 0.00 | 0.01 | 0.01 | 84 | 1007.2 |
| 20260508202434 | 70 | 144 | 10.0 | 17.0 | 0.00 | 0.01 | 0.01 | 84 | 1007.3 |
| 20260508201930 | 70 | 154 | 6.0 | 16.0 | 0.00 | 0.01 | 0.01 | 85 | 1007.5 |
| 20260508201427 | 70 | 144 | 5.0 | 12.0 | 0.00 | 0.01 | 0.01 | 86 | 1007.9 |
| 20260508200924 | 69 | 142 | 4.0 | 7.0 | 0.00 | 0.01 | 0.01 | 87 | 1008.4 |
| 20260508200421 | 70 | 182 | 2.0 | 3.0 | 0.00 | 0.01 | 0.01 | 88 | 1008.8 |
| 20260508195915 | 69 | 203 | 2.0 | 4.0 | 0.00 | 0.01 | 0.01 | 86 | 1009.1 |
| 20260508195412 | 69 | 255 | 1.0 | 3.0 | 0.00 | 0.01 | 0.01 | 86 | 1009.3 |
| 20260508194903 | 69 | 209 | 2.0 | 2.0 | 0.00 | 0.01 | 0.01 | 85 | 1009.5 |
| 20260508194400 | 69 | 274 | 1.0 | 5.0 | 0.07 | 0.01 | 0.01 | 88 | 1009.5 |
| 20260508193857 | 69 | 184 | 2.0 | 6.0 | 0.07 | 0.01 | 0.01 | 86 | 1009.1 |
| 20260508193354 | 69 | 137 | 6.0 | 6.0 | 0.00 | 0.00 | 0.00 | 81 | 1009.1 |
| 20260508192850 | 70 | 164 | 0.0 | 5.0 | 0.00 | 0.00 | 0.00 | 81 | 1009.5 |
| 20260508192347 | 70 | 201 | 0.0 | 8.0 | 0.00 | 0.00 | 0.00 | 80 | 1009.8 |
| 20260508191844 | 71 | 121 | 3.0 | 10.0 | 0.00 | 0.00 | 0.00 | 79 | 1009.4 |
| 20260508191341 | 72 | 164 | 3.0 | 13.0 | 0.00 | 0.00 | 0.00 | 77 | 1009.4 |
| 20260508190838 | 72 | 146 | 7.0 | 14.0 | 0.00 | 0.00 | 0.00 | 75 | 1009.0 |
| 20260508190335 | 73 | 152 | 4.0 | 9.0 | 0.00 | 0.00 | 0.00 | 75 | 1009.1 |
| 20260508185831 | 73 | 160 | 6.0 | 13.0 | 0.00 | 0.00 | 0.00 | 75 | 1009.2 |
| 20260508185329 | 72 | 143 | 2.0 | 11.0 | 0.00 | 0.00 | 0.00 | 76 | 1009.5 |
| 20260508184826 | 72 | 183 | 4.0 | 9.0 | 0.00 | 0.00 | 0.00 | 77 | 1009.5 |
| 20260508184323 | 71 | 181 | 3.0 | 10.0 | 0.00 | 0.00 | 0.00 | 78 | 1009.4 |
| 20260508183820 | 71 | 169 | 5.0 | 9.0 | 0.00 | 0.00 | 0.00 | 77 | 1009.8 |
| 20260508183316 | 71 | 175 | 2.0 | 5.0 | 0.00 | 0.00 | 0.00 | 78 | 1009.8 |
| 20260508182812 | 70 | 143 | 8.0 | 9.0 | 0.00 | 0.00 | 0.00 | 77 | 1009.8 |
| 20260508182309 | 70 | 119 | 4.0 | 7.0 | 0.00 | 0.00 | 0.00 | 78 | 1009.9 |
| 20260508181805 | 70 | 163 | 5.0 | 9.0 | 0.00 | 0.00 | 0.00 | 78 | 1010.0 |
| 20260508181302 | 70 | 203 | 3.0 | 9.0 | 0.00 | 0.00 | 0.00 | 78 | 1010.2 |
| 20260508180753 | 70 | 168 | 4.0 | 8.0 | 0.00 | 0.00 | 0.00 | 78 | 1010.5 |
| 20260508180249 | 70 | 153 | 5.0 | 9.0 | 0.00 | 0.00 | 0.00 | 78 | 1010.4 |
| 20260508175746 | 70 | 150 | 7.0 | 11.0 | 0.00 | 0.00 | 0.00 | 77 | 1010.7 |
| 20260508175242 | 70 | 180 | 7.0 | 13.0 | 0.00 | 0.00 | 0.00 | 75 | 1010.7 |
| 20260508174741 | 71 | 137 | 2.0 | 8.0 | 0.00 | 0.00 | 0.00 | 75 | 1010.6 |
| 20260508174238 | 71 | 168 | 4.0 | 7.0 | 0.00 | 0.00 | 0.00 | 74 | 1010.3 |
| 20260508173734 | 71 | 169 | 7.0 | 11.0 | 0.00 | 0.00 | 0.00 | 74 | 1010.4 |
| 20260508173230 | 72 | 127 | 4.0 | 7.0 | 0.00 | 0.00 | 0.00 | 71 | 1010.8 |
| 20260508172727 | 72 | 135 | 3.0 | 11.0 | 0.00 | 0.00 | 0.00 | 72 | 1010.5 |
| 20260508172224 | 73 | 119 | 3.0 | 9.0 | 0.00 | 0.00 | 0.00 | 72 | 1010.4 |
| 20260508171720 | 72 | 105 | 7.0 | 10.0 | 0.00 | 0.00 | 0.00 | 73 | 1010.3 |
| 20260508171217 | 71 | 135 | 3.0 | 9.0 | 0.00 | 0.00 | 0.00 | 73 | 1010.6 |
| 20260508170714 | 71 | 124 | 4.0 | 8.0 | 0.00 | 0.00 | 0.00 | 73 | 1010.8 |
| 20260508170212 | 71 | 153 | 3.0 | 8.0 | 0.00 | 0.00 | 0.00 | 73 | 1010.9 |
| 20260508165708 | 71 | 154 | 5.0 | 8.0 | 0.00 | 0.00 | 0.00 | 73 | 1011.1 |
| 20260508165206 | 70 | 158 | 2.0 | 9.0 | 0.00 | 0.00 | 0.00 | 75 | 1011.0 |
| 20260508164702 | 70 | 125 | 5.0 | 9.0 | 0.00 | 0.00 | 0.00 | 75 | 1011.4 |
| 20260508164159 | 70 | 115 | 3.0 | 12.0 | 0.00 | 0.00 | 0.00 | 75 | 1011.5 |
| 20260508163656 | 70 | 136 | 3.0 | 10.0 | 0.00 | 0.00 | 0.00 | 74 | 1011.3 |
| 20260508163153 | 70 | 175 | 6.0 | 10.0 | 0.00 | 0.00 | 0.00 | 75 | 1011.4 |
| 20260508162649 | 70 | 128 | 4.0 | 9.0 | 0.00 | 0.00 | 0.00 | 74 | 1011.4 |
| 20260508162146 | 70 | 117 | 4.0 | 9.0 | 0.00 | 0.00 | 0.00 | 74 | 1011.2 |